Bunny Hop

Sat, April 15, 2017

5 km
Name Gun Time Sex Age Bib Number Pace (per km) Pace (per mile)
1st Jeremy Neuffer 16:11 M 15 4254 3:14 5:12
2nd Luc Gallant 17:04 M 16 4213 3:24 5:29
3rd Joel Gallant 17:44 M 14 4212 3:32 5:42
4th Aivar Koppel 18:22 M 47 4219 3:40 5:54
5th Nick Robertson 19:08 M 17 4237 3:49 6:09
6th Mitch Stewart 19:09 M 3 4262 3:49 6:09
7th Tati Kelly 19:46 F 16 4218 3:57 6:21
8th Tori Fitzparick 20:07 F 17 4210 4:01 6:28
9th Ryan Lloyd 20:12 M 25 4221 4:02 6:30
10th Phil Byrne 20:13 M 55 4203 4:02 6:30
11th Riley Fitzpatrick 20:21 M 1 4209 4:04 6:33
12th Dennis Gallant 21:08 M 51 4211 4:13 6:48
13th Bridget Keedwell 21:09 F 16 4275 4:13 6:48
14th Matthew Hanus 21:10 M 45 4217 4:14 6:48
15th Clarke Petty 21:20 M 55 4259 4:16 6:51
16th Joey Fisher 22:24 M 30 4208 4:28 7:12
17th Tressa Lloyd 22:24 F 24 4278 4:28 7:12
18th Andrew Clark 22:25 M 23 4279 4:29 7:12
19th Ashley Murnaghan 22:26 F 33 4283 4:29 7:13
20th Alex Rogers 22:40 F 22 4258 4:32 7:17
21st Patrick Bergin 22:46 M 3 4248 4:33 7:19
22nd Scott Stewart 22:46 M 54 4285 4:33 7:19
23rd Paul McGuire 22:56 M 59 4273 4:35 7:22
24th John Van Ekris 23:46 M 51 2834 4:45 7:38
25th Joe Moak 24:07 M 11 4228 4:49 7:45
26th Chad MacMillan 24:08 M 0 4276 4:49 7:46
27th Lucas Clow 24:42 M 21 4269 4:56 7:57
28th Peter Moak 24:47 M 57 4229 4:57 7:58
29th Kara Ryan 24:50 F 1 4239 4:58 7:59
30th Kailey Ryan 24:55 F 0 4238 4:59 8:01
31st Anthony Fisher 25:12 M 0 4207 5:02 8:06
32nd Maureen Peters 26:07 F 38 4257 5:13 8:24
33rd Jeff Campbell 26:20 M 37 4263 5:16 8:28
34th Heather MacAulay 26:27 F 31 4256 5:17 8:30
35th Szarina Gauthier 27:00 F 42 4216 5:24 8:41
36th Kate MacSwain 27:07 F 35 4264 5:25 8:43
37th Rachel Silver 27:22 F 44 4252 5:28 8:48
38th Odette Gallant 27:26 F 49 4214 5:29 8:49
39th Pam Deveaux 27:29 F 34 4205 5:29 8:50
40th Eric Deveau 27:34 M 56 4274 5:30 8:52
41st SIOBHAN BERGIN 27:44 F 17 4249 5:32 8:55
42nd Andrea Robbins 27:55 F 1 4236 5:35 8:59
43rd Donald McGinn 27:57 M 52 4266 5:35 8:59
44th Keanna Ryan 28:05 F 0 4240 5:37 9:02
45th Sarah Neusch 28:06 F 0 4232 5:37 9:02
46th Loretta Van Ekris 28:08 F 50 4243 5:37 9:03
47th Elizabeth MacDonald 28:17 F 34 4222 5:39 9:06
48th Natalie Wood 28:18 F 6 4268 5:39 9:06
49th Kylie Muio 28:36 F 3 4230 5:43 9:12
50th Sawyer Ryan 28:46 M 0 4241 5:45 9:15
51st Scott Macinnis 28:51 M 2 4223 5:46 9:17
52nd Joline Dawson 28:53 F 36 4267 5:46 9:17
53rd Christina MacLean 29:10 F 39 4270 5:50 9:23
54th Jeremy Wall 29:33 M 32 4272 5:54 9:30
55th Heather Rossiter 29:43 F 47 4265 5:56 9:33
56th Karen Obrien 29:56 F 2 4233 5:59 9:38
57th Jill MacMillan 29:58 F 0 4224 5:59 9:38
58th Jack Wotton 30:12 M 0 4247 6:02 9:43
59th Melissa Woodacre 30:16 F 37 4253 6:03 9:44
60th Rose Murphy-Cheverie 30:20 F 58 4231 6:04 9:45
61st Sarah Varis 30:23 F 60 4271 6:04 9:46
62nd Sarah Walker 30:51 F 22 4245 6:10 9:55
63rd Gordon Smith 31:57 M 60 4255 6:23 10:17
64th Michelle McQuaid 32:36 F 3 4226 6:31 10:29
65th Shannon Ochsner 32:36 F 29 4234 6:31 10:29
66th Stephanie McQuaid 32:36 F 0 4250 6:31 10:29
67th Peter Meggs 33:53 M 67 4227 6:46 10:54
68th Natalie Walsh 34:52 F 33 4246 6:58 11:13
69th Craig Annand 34:52 M 0 4201 6:58 11:13
70th Maxine Doran 35:10 F 1 4206 7:02 11:19
71st Kate Morris 35:47 F 18 4251 7:09 11:31
72nd Aila Gardiner 36:43 F 0 4215 7:20 11:49
73rd Lori Wakelin 36:43 F 0 4244 7:20 11:49
74th Shelley Read 38:55 F 52 4235 7:47 12:31
75th Kohl Dallaire 39:39 M 6 4281 7:55 12:45
76th Mark Cullen 39:41 M 38 4282 7:56 12:46
77th Natalie Dallaire 39:41 F 35 4280 7:56 12:46
78th Bob Gray 48:59 M 65 4277 9:47 15:45
79th Margo Connors 50:30 F 50 4204 10:06 16:15
80th Shannon Classen 59:00 F 35 4261 11:48 18:59
81st Cadence Wood 59:53 F 9 4260 11:58 19:16

Finish Time Distribution

Individual Finish Times